H1 CPF 2 NER 2025 10 28 9 301 01 glonass137 H2 1705501 9137 42939 2025 10 28 0 0 0 2025 10 31 23 45 0 900 1 1 0 0 0 1 H9 10 0 60976 0.00000 0 10523690.089 -12963719.816 19284446.127 10 0 60976 900.00000 0 12641590.933 -13753811.974 17367195.173 10 0 60976 1800.00000 0 14460815.017 -14594308.430 15112571.447 10 0 60976 2700.00000 0 15950653.569 -15431118.397 12564290.915 10 0 60976 3600.00000 0 17092693.255 -16206972.099 9771804.113 10 0 60976 4500.00000 0 17881356.087 -16863943.926 6789339.500 10 0 60976 5400.00000 0 18323910.105 -17346023.041 3674850.733 10 0 60976 6300.00000 0 18439950.637 -17601622.367 488888.213 10 0 60976 7200.00000 0 18260374.235 -17585919.072 -2706582.778 10 0 60976 8100.00000 0 17825889.074 -17262926.485 -5849393.778 10 0 60976 9000.00000 0 17185125.313 -16607208.556 -8878390.305 10 0 60976 9900.00000 0 16392426.047 -15605163.032 -11734629.754 10 0 60976 10800.00000 0 15505413.110 -14255817.831 -14362535.816 10 0 60976 11700.00000 0 14582431.536 -12571105.774 -16710986.107 10 0 60976 12600.00000 0 13679981.516 -10575605.036 -18734311.162 10 0 60976 13500.00000 0 12850247.045 -8305755.343 -20393185.007 10 0 60976 14400.00000 0 12138826.047 -5808582.098 -21655389.910 10 0 60976 15300.00000 0 11582757.963 -3139981.331 -22496440.578 10 0 60976 16200.00000 0 11208931.879 -362636.724 -22900056.065 10 0 60976 17100.00000 0 11032941.962 2456344.777 -22858470.769 10 0 60976 18000.00000 0 11058437.843 5247980.632 -22372579.037 10 0 60976 18900.00000 0 11276996.684 7944038.087 -21451911.158 10 0 60976 19800.00000 0 11668521.540 10479628.704 -20114441.706 10 0 60976 20700.00000 0 12202148.581 12795664.819 -18386234.349 10 0 60976 21600.00000 0 12837624.261 14841076.721 -16300930.301 10 0 60976 22500.00000 0 13527093.945 16574699.330 -13899090.490 10 0 60976 23400.00000 0 14217226.126 17966751.012 -11227404.357 10 0 60976 24300.00000 0 14851582.385 18999844.206 -8337780.677 10 0 60976 25200.00000 0 15373132.945 19669487.119 -5286338.102 10 0 60976 26100.00000 0 15726811.510 19984056.954 -2132315.119 10 0 60976 27000.00000 0 15862001.536 19964247.268 1063079.337 10 0 60976 27900.00000 0 15734848.951 19642013.950 4237852.269 10 0 60976 28800.00000 0 15310303.662 19059065.268 7330426.853 10 0 60976 29700.00000 0 14563803.651 18264960.352 10280833.314 10 0 60976 30600.00000 0 13482530.431 17314896.728 13031867.456 10 0 60976 31500.00000 0 12066182.614 16267280.290 15530194.645 10 0 60976 32400.00000 0 10327234.495 15181179.965 17727378.232 10 0 60976 33300.00000 0 8290667.877 14113773.873 19580813.066 10 0 60976 34200.00000 0 5993187.354 13117893.891 21054546.592 10 0 60976 35100.00000 0 3481950.475 12239771.215 22119972.272 10 0 60976 36000.00000 0 812864.254 11517077.011 22756382.498 10 0 60976 36900.00000 0 -1951482.605 10977339.857 22951370.679 10 0 60976 37800.00000 0 -4744167.460 10636806.022 22701074.942 10 0 60976 38700.00000 0 -7496465.514 10499790.236 22010258.639 10 0 60976 39600.00000 0 -10140461.940 10558544.290 20892225.714 10 0 60976 40500.00000 0 -12611637.116 10793649.270 19368571.936 10 0 60976 41400.00000 0 -14851318.571 11174915.457 17468775.900 10 0 60976 42300.00000 0 -16808898.335 11662752.601 15229636.758 10 0 60976 43200.00000 0 -18443723.792 12209953.474 12694568.521 10 0 60976 44100.00000 0 -19726583.356 12763815.973 9912763.698 10 0 60976 45000.00000 0 -20640724.882 13268514.456 6938241.833 10 0 60976 45900.00000 0 -21182364.166 13667620.079 3828800.971 10 0 60976 46800.00000 0 -21360662.126 13906663.157 644892.371 10 0 60976 47700.00000 0 -21197171.733 13935628.405 -2551559.335 10 0 60976 48600.00000 0 -20724778.201 13711276.405 -5698367.002 10 0 60976 49500.00000 0 -19986177.530 13199191.786 -8734298.471 10 0 60976 50400.00000 0 -19031958.200 12375470.078 -11600276.012 10 0 60976 51300.00000 0 -17918367.758 11227970.499 -14240533.420 10 0 60976 52200.00000 0 -16704859.348 9757080.399 -16603707.408 10 0 60976 53100.00000 0 -15451522.575 7975957.897 -18643841.378 10 0 60976 54000.00000 0 -14216507.716 5910241.404 -20321281.673 10 0 60976 54900.00000 0 -13053552.362 3597237.307 -21603448.778 10 0 60976 55800.00000 0 -12009714.847 1084619.157 -22465468.641 10 0 60976 56700.00000 0 -11123409.829 -1571307.832 -22890652.197 10 0 60976 57600.00000 0 -10422828.189 -4307705.015 -22870814.330 10 0 60976 58500.00000 0 -9924807.077 -7057574.204 -22406426.649 10 0 60976 59400.00000 0 -9634196.691 -9752308.815 -21506601.691 10 0 60976 60300.00000 0 -9543749.385 -12324316.658 -20188909.354 10 0 60976 61200.00000 0 -9634534.685 -14709605.792 -18479029.543 10 0 60976 62100.00000 0 -9876861.723 -16850226.605 -16410248.040 10 0 60976 63000.00000 0 -10231669.250 -18696469.363 -14022805.562 10 0 60976 63900.00000 0 -10652323.850 -20208726.558 -11363112.746 10 0 60976 64800.00000 0 -11086749.860 -21358943.576 -8482846.359 10 0 60976 65700.00000 0 -11479800.604 -22131598.244 -5437944.329 10 0 60976 66600.00000 0 -11775770.453 -22524169.567 -2287519.153 10 0 60976 67500.00000 0 -11920941.389 -22547077.257 907289.090 10 0 60976 68400.00000 0 -11866056.290 -22223095.819 4084497.862 10 0 60976 69300.00000 0 -11568614.371 -21586268.798 7182482.272 10 0 60976 70200.00000 0 -10994891.700 -20680369.697 10141166.959 10 0 60976 71100.00000 0 -10121601.334 -19556974.853 12903186.732 10 0 60976 72000.00000 0 -8937122.737 -18273229.585 15414993.703 10 0 60976 72900.00000 0 -7442248.211 -16889401.545 17627889.867 10 0 60976 73800.00000 0 -5650414.169 -15466323.757 19498965.665 10 0 60976 74700.00000 0 -3587406.510 -14062834.231 20991926.931 10 0 60976 75600.00000 0 -1290551.150 -12733318.891 22077794.877 10 0 60976 76500.00000 0 1192578.056 -11525460.056 22735466.126 10 0 60976 77400.00000 0 3805881.726 -10478284.101 22952122.376 10 0 60976 78300.00000 0 6486817.783 -9620589.370 22723481.987 10 0 60976 79200.00000 0 9168759.784 -8969819.677 22053888.534 10 0 60976 80100.00000 0 11783534.317 -8531430.285 20956234.244 10 0 60976 81000.00000 0 14264033.396 -8298772.794 19451719.176 10 0 60976 81900.00000 0 16546794.378 -8253503.869 17569449.884 10 0 60976 82800.00000 0 18574440.819 -8366500.826 15345884.398 10 0 60976 83700.00000 0 20297883.022 -8599245.857 12824133.207 10 0 60976 84600.00000 0 21678186.696 -8905620.784 10053128.887 10 0 60976 85500.00000 0 22688031.470 -9234036.754 7086679.797 10 0 60977 0.00000 0 23312698.005 -9529808.769 3982426.065 10 0 60977 900.00000 0 23550542.289 -9737674.390 800716.387 10 0 60977 1800.00000 0 23412936.240 -9804348.942 -2396568.038 10 0 60977 2700.00000 0 22923678.175 -9681008.583 -5547224.521 10 0 60977 3600.00000 0 22117897.175 -9325594.470 -8589946.349 10 0 60977 4500.00000 0 21040498.262 -8704839.234 -11465523.660 10 0 60977 5400.00000 0 19744214.390 -7795928.599 -14118003.146 10 0 60977 6300.00000 0 18287348.016 -6587726.438 -16495783.160 10 0 60977 7200.00000 0 16731298.134 -5081510.224 -18552622.229 10 0 60977 8100.00000 0 15137977.546 -3291184.697 -20248540.955 10 0 60977 9000.00000 0 13567229.578 -1242963.652 -21550599.683 10 0 60977 9900.00000 0 12074353.082 1025467.615 -22433536.898 10 0 60977 10800.00000 0 10707839.690 3466274.881 -22880256.358 10 0 60977 11700.00000 0 9507417.917 6023227.883 -22882154.020 10 0 60977 12600.00000 0 8502485.503 8633810.833 -22439278.959 10 0 60977 13500.00000 0 7710994.780 11231603.038 -21560325.782 10 0 60977 14400.00000 0 7138836.609 13748830.933 -20262459.157 10 0 60977 15300.00000 0 6779747.440 16118985.720 -18570974.298 10 0 60977 16200.00000 0 6615741.969 18279398.209 -16518800.266 10 0 60977 17100.00000 0 6618051.882 20173664.250 -14145855.907 10 0 60977 18000.00000 0 6748529.935 21753820.387 -11498271.040 10 0 60977 18900.00000 0 6961459.120 22982179.805 -8627488.083 10 0 60977 19800.00000 0 7205689.753 23832752.822 -5589261.569 10 0 60977 20700.00000 0 7427013.580 24292193.499 -2442575.092 10 0 60977 21600.00000 0 7570674.110 24360233.743 751503.237 10 0 60977 22500.00000 0 7583906.764 24049587.734 3931004.546 10 0 60977 23400.00000 0 7418401.226 23385331.546 7034259.097 10 0 60977 24300.00000 0 7032581.799 22403784.818 10001089.067 10 0 60977 25200.00000 0 6393609.244 21150941.924 12773971.226 10 0 60977 26100.00000 0 5479019.396 19680518.873 15299147.167 10 0 60977 27000.00000 0 4277929.050 18051697.896 17527659.985 10 0 60977 27900.00000 0 2791757.747 16326664.106 19416297.857 10 0 60977 28800.00000 0 1034434.223 14568036.989 20928426.819 10 0 60977 29700.00000 0 -967922.288 12836303.573 22034697.262 10 0 60977 30600.00000 0 -3177834.044 11187359.883 22713611.074 10 0 60977 31500.00000 0 -5547776.908 9670262.599 22951938.828 10 0 60977 32400.00000 0 -8021919.673 8325284.026 22744979.220 10 0 60977 33300.00000 0 -10538219.939 7182350.899 22096655.628 10 0 60977 34200.00000 0 -13030790.966 6259931.666 21019447.613 10 0 60977 35100.00000 0 -15432442.582 5564418.354 19534158.031 10 0 60977 36000.00000 0 -17677291.631 5090028.590 17669519.403 10 0 60977 36900.00000 0 -19703334.120 4819231.809 15461646.192 10 0 60977 37800.00000 0 -21454872.395 4723681.669 12953342.560 10 0 60977 38700.00000 0 -22884696.211 4765615.461 10193278.092 10 0 60977 39600.00000 0 -23955926.353 4899661.460 7235046.769 10 0 60977 40500.00000 0 -24643443.275 5074977.710 4136127.015 10 0 60977 41400.00000 0 -24934840.367 5237631.430 956762.921 10 0 60977 42300.00000 0 -24830861.322 5333117.672 -2241211.327 10 0 60977 43200.00000 0 -24345302.815 5308909.654 -5395580.359 10 0 60977 44100.00000 0 -23504386.396 5116931.591 -8444965.587 10 0 60977 45000.00000 0 -22345626.042 4715847.954 -11330027.490 10 0 60977 45900.00000 0 -20916239.297 4073070.817 -13994627.896 10 0 60977 46800.00000 0 -19271169.323 3166398.966 -16386928.758 10 0 60977 47700.00000 0 -17470801.661 1985218.146 -18460405.358 10 0 60977 48600.00000 0 -15578472.266 531210.559 -20174753.822 10 0 60977 49500.00000 0 -13657871.989 -1181457.370 -21496675.176 10 0 60977 50400.00000 0 -11770456.757 -3126477.792 -22400520.828 10 0 60977 51300.00000 0 -9972972.049 -5266261.203 -22868787.297 10 0 60977 52200.00000 0 -8315195.098 -7553277.849 -22892451.114 10 0 60977 53100.00000 0 -6837988.739 -9931825.184 -22471137.938 10 0 60977 54000.00000 0 -5571747.396 -12340148.081 -21613123.217 10 0 60977 54900.00000 0 -4535299.021 -14712823.743 -20335164.870 10 0 60977 55800.00000 0 -3735307.523 -16983312.293 -18662171.662 10 0 60977 56700.00000 0 -3166199.150 -19086567.139 -16626713.998 10 0 60977 57600.00000 0 -2810614.265 -20961596.748 -14268386.794 10 0 60977 58500.00000 0 -2640363.999 -22553871.477 -11633036.933 10 0 60977 59400.00000 0 -2617850.070 -23817475.553 -8771870.336 10 0 60977 60300.00000 0 -2697886.723 -24716914.942 -5740456.029 10 0 60977 61200.00000 0 -2829846.901 -25228506.198 -2597646.613 10 0 60977 62100.00000 0 -2960041.260 -25341288.855 595563.805 10 0 60977 63000.00000 0 -3034228.923 -25057423.910 3777222.034 10 0 60977 63900.00000 0 -3000153.449 -24392062.354 6885615.480 10 0 60977 64800.00000 0 -2809996.603 -23372689.884 9860465.851 10 0 60977 65700.00000 0 -2422646.012 -22037975.717 12644093.858 10 0 60977 66600.00000 0 -1805680.789 -20436174.044 15182532.517 10 0 60977 67500.00000 0 -936991.081 -18623145.134 17426567.880 10 0 60977 68400.00000 0 194037.145 -16660078.710 19332687.574 10 0 60977 69300.00000 0 1585822.581 -14611014.400 20863919.346 10 0 60977 70200.00000 0 3224404.641 -12540262.216 21990544.028 10 0 60977 71100.00000 0 5083784.084 -10509829.897 22690669.723 10 0 60977 72000.00000 0 7126775.393 -8576963.568 22950656.518 10 0 60977 72900.00000 0 9306336.994 -6791903.283 22765383.742 10 0 60977 73800.00000 0 11567325.583 -5195946.127 22138354.570 10 0 60977 74700.00000 0 13848603.125 -3819896.844 21081635.572 10 0 60977 75600.00000 0 16085410.342 -2682969.974 19615631.795 10 0 60977 76500.00000 0 18211909.138 -1792188.829 17768700.840 10 0 60977 77400.00000 0 20163788.928 -1142306.092 15576612.450 10 0 60977 78300.00000 0 21880828.754 -716249.073 13081863.030 10 0 60977 79200.00000 0 23309308.402 -486070.714 10332857.459 10 0 60977 80100.00000 0 24404167.452 -414366.076 7382973.329 10 0 60977 81000.00000 0 25130821.425 -456094.281 4289525.353 10 0 60977 81900.00000 0 25466558.169 -560728.486 1112649.904 10 0 60977 82800.00000 0 25401455.117 -674642.299 -2085868.312 10 0 60977 83700.00000 0 24938778.153 -743630.750 -5243804.118 10 0 60977 84600.00000 0 24094844.755 -715457.927 -8299709.933 10 0 60977 85500.00000 0 22898356.817 -542322.123 -11194119.383 10 0 60978 0.00000 0 21389231.265 -183132.785 -13870711.839 10 0 60978 900.00000 0 19616976.909 394498.731 -16277415.759 10 0 60978 1800.00000 0 17638688.165 1212639.546 -18367425.096 10 0 60978 2700.00000 0 15516737.598 2281857.057 -20100113.394 10 0 60978 3600.00000 0 13316266.455 3600532.463 -21441823.998 10 0 60978 4500.00000 0 11102577.884 5154696.010 -22366522.605 10 0 60978 5400.00000 0 8938542.175 6918391.593 -22856299.580 10 0 60978 6300.00000 0 6882122.322 8854556.102 -22901712.806 10 0 60978 7200.00000 0 4984122.847 10916377.129 -22501964.970 10 0 60978 8100.00000 0 3286255.030 13049072.683 -21664912.433 10 0 60978 9000.00000 0 1819598.225 15192018.938 -20406906.045 10 0 60978 9900.00000 0 603520.113 17281137.396 -18752467.397 10 0 60978 10800.00000 0 -354900.602 19251442.166 -16733807.096 10 0 60978 11700.00000 0 -1060926.631 21039641.297 -14390194.592 10 0 60978 12600.00000 0 -1531689.253 22586683.832 -11767191.904 10 0 60978 13500.00000 0 -1795211.734 23840146.513 -8915766.173 10 0 60978 14400.00000 0 -1888971.667 24756360.731 -5891298.313 10 0 60978 15300.00000 0 -1858064.109 25302191.118 -2752507.073 10 0 60978 16200.00000 0 -1753044.086 25456391.786 439690.510 10 0 60978 17100.00000 0 -1627540.412 25210483.831 3623360.103 10 0 60978 18000.00000 0 -1535742.213 24569117.785 6736749.467 10 0 60978 18900.00000 0 -1529864.760 23549906.190 9719483.002 10 0 60978 19800.00000 0 -1657701.946 22182733.617 12513728.394 10 0 60978 20700.00000 0 -1960368.906 20508573.137 15065312.929 10 0 60978 21600.00000 0 -2470330.240 18577858.754 17324768.219 10 0 60978 22500.00000 0 -3209797.183 16448481.568 19248283.674 10 0 60978 23400.00000 0 -4189561.629 14183492.891 20798550.760 10 0 60978 24300.00000 0 -5408316.688 11848609.480 21945482.400 10 0 60978 25200.00000 0 -6852493.224 9509623.981 22666794.178 10 0 60978 26100.00000 0 -8496620.437 7229827.479 22948436.504 10 0 60978 27000.00000 0 -10304196.833 5067550.405 22784869.679 10 0 60978 27900.00000 0 -12229036.811 3073923.085 22179176.471 10 0 60978 28800.00000 0 -14217038.264 1290948.220 21143009.703 10 0 60978 29700.00000 0 -16208299.008 -250035.262 19696375.290 10 0 60978 30600.00000 0 -18139495.118 -1529433.649 17867254.041 10 0 60978 31500.00000 0 -19946422.942 -2539980.560 15691068.596 10 0 60978 32400.00000 0 -21566599.337 -3286795.816 13210004.795 10 0 60978 33300.00000 0 -22941811.683 -3786918.992 10472199.659 10 0 60978 34200.00000 0 -24020510.786 -4068337.543 7530811.024 10 0 60978 35100.00000 0 -24759945.898 -4168550.866 4442986.399 10 0 60978 36000.00000 0 -25127951.498 -4132731.311 1268750.950 10 0 60978 36900.00000 0 -25104309.815 -4011560.527 -1930163.532 10 0 60978 37800.00000 0 -24681630.874 -3858833.483 -5091525.341 10 0 60978 38700.00000 0 -23865712.104 -3728932.650 -8153821.012 10 0 60978 39600.00000 0 -22675361.684 -3674280.452 -11057460.205 10 0 60978 40500.00000 0 -21141692.573 -3742879.209 -13745942.918 10 0 60978 41400.00000 0 -19306916.646 -3976043.951 -16166965.452 10 0 60978 42300.00000 0 -17222689.612 -4406425.308 -18273442.855 10 0 60978 43200.00000 0 -14948076.324 -5056407.139 -20024427.557 10 0 60978 44100.00000 0 -12547222.001 -5936947.529 -21385906.160 10 0 60978 45000.00000 0 -10086827.039 -7046912.829 -22331459.019 10 0 60978 45900.00000 0 -7633531.105 -8372933.420 -22842770.131 10 0 60978 46800.00000 0 -5251315.577 -9889787.793 -22909977.959 10 0 60978 47700.00000 0 -2999032.357 -11561299.223 -22531860.933 10 0 60978 48600.00000 0 -928161.380 -13341707.754 -21715854.616 10 0 60978 49500.00000 0 919110.705 -15177460.344 -20477900.734 10 0 60978 50400.00000 0 2511411.856 -17009344.411 -18842131.386 10 0 60978 51300.00000 0 3829244.025 -18774875.748 -16840394.884 10 0 60978 52200.00000 0 4865538.122 -20410841.119 -14511632.597 10 0 60978 53100.00000 0 5625683.102 -21855889.296 -11901119.017 10 0 60978 54000.00000 0 6127029.863 -23053062.311 -9059579.848 10 0 60978 54900.00000 0 6397892.481 -23952161.132 -6042205.272 10 0 60978 55800.00000 0 6476090.394 -24511846.833 -2907577.650 10 0 60978 56700.00000 0 6407094.265 -24701389.443 283465.484 10 0 60978 57600.00000 0 6241854.841 -24501991.368 3469010.954 10 0 60978 58500.00000 0 6034407.234 -23907630.070 6587269.044 10 0 60978 59400.00000 0 5839352.379 -22925384.869 9577768.857 10 0 60978 60300.00000 0 5709322.359 -21575234.231 12382526.896 10 0 60978 61200.00000 0 5692536.816 -19889331.983 14947166.358 10 0 60978 62100.00000 0 5830553.632 -17910792.560 17221965.857 10 0 60978 63000.00000 0 6156308.810 -15692035.646 19162817.755 10 0 60978 63900.00000 0 6692528.268 -13292758.732 20732078.141 10 0 60978 64800.00000 0 7450578.700 -10777621.344 21899292.630 10 0 60978 65700.00000 0 8429806.345 -8213736.407 22641784.557 10 0 60978 66600.00000 0 9617392.246 -5668072.047 22945094.631 10 0 60978 67500.00000 0 10988731.183 -3204870.728 22803263.786 10 0 60978 68400.00000 0 12508319.727 -883191.809 22218953.780 10 0 60978 69300.00000 0 14131117.731 1245321.363 21203402.851 10 0 60978 70200.00000 0 15804327.804 3138357.950 19776216.729 10 0 60978 71100.00000 0 17469519.760 4764460.729 17964998.199 10 0 60978 72000.00000 0 19065012.308 6104089.062 15804821.402 10 0 60978 72900.00000 0 20528413.158 7150179.839 13337560.039 10 0 60978 73800.00000 0 21799211.573 7908183.381 10611081.540 10 0 60978 74700.00000 0 22821314.643 8395573.152 7678322.062 10 0 60978 75600.00000 0 23545420.439 8640850.301 4596259.815 10 0 60978 76500.00000 0 23931127.550 8682085.459 1424806.488 10 0 60978 77400.00000 0 23948691.299 8565059.923 -1774361.435 10 0 60978 78300.00000 0 23580351.590 8341085.570 -4939008.198 10 0 60978 79200.00000 0 22821175.332 8064596.656 -8007556.926 10 0 60978 80100.00000 0 21679376.951 7790616.549 -10920295.713 10 0 60978 81000.00000 0 20176102.638 7572207.802 -13620547.219 10 0 60978 81900.00000 0 18344686.792 7458014.730 -16055778.144 10 0 60978 82800.00000 0 16229411.533 7490003.603 -18178626.237 10 0 60978 83700.00000 0 13883821.171 7701497.037 -19947824.451 10 0 60978 84600.00000 0 11368662.216 8115586.435 -21329004.080 10 0 60978 85500.00000 0 8749535.196 8743990.166 -22295361.361 10 0 60979 0.00000 0 6094356.616 9586405.978 -22828174.908 10 0 60979 900.00000 0 3470735.391 10630385.722 -22917164.624 10 0 60979 1800.00000 0 943376.388 11851736.699 -22560685.091 10 0 60979 2700.00000 0 -1428386.118 13215434.382 -21765751.210 10 0 60979 3600.00000 0 -3592819.665 14677007.210 -20547895.323 10 0 60979 4500.00000 0 -5507699.135 16184335.852 -18930859.364 10 0 60979 5400.00000 0 -7141808.355 17679791.449 -16946128.260 10 0 60979 6300.00000 0 -8475976.785 19102623.297 -14632313.810 10 0 60979 7200.00000 0 -9503609.681 20391495.868 -12034401.123 10 0 60979 8100.00000 0 -10230691.453 21487068.870 -9202872.290 10 0 60979 9000.00000 0 -10675263.833 22334512.158 -6192724.335 10 0 60979 9900.00000 0 -10866402.482 22885850.020 -3062400.590 10 0 60979 10800.00000 0 -10842736.597 23102036.483 127343.689 10 0 60979 11700.00000 0 -10650575.150 22954674.579 3314619.364 10 0 60979 12600.00000 0 -10341719.759 22427307.375 6437602.149 10 0 60979 13500.00000 0 -9971057.216 21516226.606 9435728.758 10 0 60979 14400.00000 0 -9594033.714 20230764.846 12250867.350 10 0 60979 15300.00000 0 -9264117.604 18593058.778 14828439.776 10 0 60979 16200.00000 0 -9030357.757 16637293.116 17118474.218 10 0 60979 17100.00000 0 -8935140.409 14408456.211 19076568.374 10 0 60979 18000.00000 0 -9012238.916 11960658.615 20664745.077 10 0 60979 18900.00000 0 -9285238.492 9355083.733 21852184.455 10 0 60979 19800.00000 0 -9766402.344 6657654.832 22615819.082 10 0 60979 20700.00000 0 -10456027.206 3936514.201 22940781.033 10 0 60979 21600.00000 0 -11342316.013 1259417.978 22820692.509 10 0 60979 22500.00000 0 -12401773.958 -1308846.494 22257794.384 10 0 60979 23400.00000 0 -13600112.492 -3708914.640 21262909.904 10 0 60979 24300.00000 0 -14893624.622 -5889069.134 19855243.666 10 0 60979 25200.00000 0 -16230975.187 -7807143.274 18062018.932 10 0 60979 26100.00000 0 -17555332.189 -9432024.721 15917959.329 10 0 60979 27000.00000 0 -18806750.715 -10744697.449 13464623.955 10 0 60979 27900.00000 0 -19924709.969 -11738778.807 10749607.783 10 0 60979 28800.00000 0 -20850696.975 -12420529.550 7825622.138 10 0 60979 29700.00000 0 -21530728.057 -12808336.752 4749472.573 10 0 60979 30600.00000 0 -21917701.336 -12931691.777 1580953.828 10 0 60979 31500.00000 0 -21973480.141 -12829706.890 -1618316.431 10 0 60979 32400.00000 0 -21670618.382 -12549233.780 -4786101.873 10 0 60979 33300.00000 0 -20993653.850 -12142664.363 -7860765.611 10 0 60979 34200.00000 0 -19939913.669 -11665507.849 -10782477.425 10 0 60979 35100.00000 0 -18519796.820 -11173847.679 -13494385.691 10 0 60979 36000.00000 0 -16756520.896 -10721787.037 -15943730.281 10 0 60979 36900.00000 0 -14685343.015 -10358992.050 -18082874.067 10 0 60979 37800.00000 0 -12352287.092 -10128437.459 -19870232.478 10 0 60979 38700.00000 0 -9812430.498 -10064450.734 -21271082.902 10 0 60979 39600.00000 0 -7127821.625 -10191137.682 -22258238.244 10 0 60979 40500.00000 0 -4365115.190 -10521256.258 -22812571.917 10 0 60979 41400.00000 0 -1593023.710 -11055586.086 -22923384.554 10 0 60979 42300.00000 0 1120308.945 -11782820.211 -22588605.910 10 0 60979 43200.00000 0 3709903.108 -12679983.451 -21814828.584 10 0 60979 44100.00000 0 6116400.702 -13713359.612 -20617173.465 10 0 60979 45000.00000 0 8288283.120 -14839888.347 -19018989.916 10 0 60979 45900.00000 0 10183758.521 -16008972.847 -17051396.800 10 0 60979 46800.00000 0 11772241.287 -17164622.246 -14752673.465 10 0 60979 47700.00000 0 13035363.511 -18247838.636 -12167512.605 10 0 60979 48600.00000 0 13967477.965 -19199148.279 -9346149.561 10 0 60979 49500.00000 0 14575633.225 -19961170.594 -6343385.011 10 0 60979 50400.00000 0 14879023.704 -20481116.816 -3217520.072 10 0 60979 51300.00000 0 14907939.250 -20713113.223 -29224.606 10 0 60979 52200.00000 0 14702259.911 -20620251.162 3159639.264 10 0 60979 53100.00000 0 14309560.371 -20176277.581 6287215.451 10 0 60979 54000.00000 0 13782904.812 -19366854.854 9292850.755 10 0 60979 54900.00000 0 13178425.773 -18190336.794 12118267.145 10 0 60979 55800.00000 0 12552789.371 -16658027.883 14708686.895 10 0 60979 56700.00000 0 11960653.812 -14793914.430 17013889.136 10 0 60979 57600.00000 0 11452228.127 -12633878.159 18989177.866 10 0 60979 58500.00000 0 11071033.722 -10224424.262 20596243.220 10 0 60979 59400.00000 0 10851962.616 -7620975.898 21803900.005 10 0 60979 60300.00000 0 10819713.862 -4885804.929 22588689.817 10 0 60979 61200.00000 0 10987673.783 -2085683.643 22935335.541 10 0 60979 62100.00000 0 11357287.238 710646.393 22837039.767 10 0 60979 63000.00000 0 11917946.768 3435084.662 22295621.346 10 0 60979 63900.00000 0 12647404.959 6022754.144 21321487.165 10 0 60979 64800.00000 0 13512693.625 8414449.842 19933439.135 10 0 60979 65700.00000 0 14471512.264 10558852.649 18158319.293 10 0 60979 66600.00000 0 15474028.459 12414417.185 16030498.934 10 0 60979 67500.00000 0 16465015.496 13950855.563 13591220.611 10 0 60979 68400.00000 0 17386237.915 15150155.505 10887804.813 10 0 60979 69300.00000 0 18178984.888 16007090.502 7972735.893 10 0 60979 70200.00000 0 18786644.602 16529200.882 4902644.509 10 0 60979 71100.00000 0 19157210.599 16736246.822 1737206.134 10 0 60979 72000.00000 0 19245613.474 16659156.710 -1462022.745 10 0 60979 72900.00000 0 19015778.371 16338515.698 -4632807.590 10 0 60979 73800.00000 0 18442320.085 15822658.930 -7713453.791 10 0 60979 74700.00000 0 17511802.863 15165450.866 -10644014.997 10 0 60979 75600.00000 0 16223510.405 14423845.508 -13367467.292 10 0 60979 76500.00000 0 14589692.403 13655331.716 -15830825.510 10 0 60979 77400.00000 0 12635276.204 12915372.534 -17986179.202 10 0 60979 78300.00000 0 10397054.933 12254947.608 -19791627.618 10 0 60979 79200.00000 0 7922385.454 11718303.062 -21212095.374 10 0 60979 80100.00000 0 5267450.296 11341004.214 -22220012.980 10 0 60979 81000.00000 0 2495155.811 11148373.356 -22795849.349 10 0 60979 81900.00000 0 -327246.065 11154378.288 -22928486.439 10 0 60979 82800.00000 0 -3130713.642 11361018.131 -22615429.311 10 0 60979 83700.00000 0 -5847043.002 11758231.767 -21862848.129 10 0 60979 84600.00000 0 -8411458.515 12324332.270 -20685451.811 10 0 60979 85500.00000 0 -10765059.351 13026948.490 -19106196.211 99